Tracking 19795 objects as of 20-Jul-2019
HD Live streaming from Space Station
objects crossing your sky now

NAVSTAR 64 (USA 206)

Track NAVSTAR 64 (USA 206) now!
NAVSTAR 64 (USA 206) is classified as:


NORAD ID: 35752
Int'l Code: 2009-043A
Perigee: 20,040.6 km
Apogee: 20,339.2 km
Inclination: 54.4 °
Period: 718.0 minutes
Semi major axis: 26560 km
RCS: 6.3 m2 (large)
Launch date: August 17, 2009
Source: United States (US)
Launch site: AIR FORCE EASTERN TEST RANGE (AFETR)
PRN: 5
aabbcc
Your satellite tracking list
Your tracking list is empty




NASA's NSSDC Master Catalog

Two Line Element Set (TLE):
1 35752U 09043A   19198.51032198 -.00000035  00000-0  00000+0 0  9993
2 35752  54.4417 128.6687 0056207  40.5017 109.4673  2.00557030 72667
Source of the keplerian elements: AFSPC